CST,Max TemperatureF,Mean TemperatureF,Min TemperatureF,Max Dew PointF,MeanDew PointF,Min DewpointF,Max Humidity, Mean Humidity, Min Humidity, Max Sea Level PressureIn, Mean Sea Level PressureIn, Min Sea Level PressureIn, Max VisibilityMiles, Mean VisibilityMiles, Min VisibilityMiles, Max Wind SpeedMPH, Mean Wind SpeedMPH, Max Gust SpeedMPH,PrecipitationIn, CloudCover, Events, WindDirDegrees
2013-2-1,39,26,12,19,12,6,89,64,30,30.51,30.37,30.21,10,10,10,13,3,,0.00,0,,147
2013-2-2,59,39,19,30,25,17,96,63,32,30.30,30.24,30.20,10,10,10,10,2,16,0.00,1,,276
2013-2-3,55,44,32,28,25,21,75,45,28,30.33,30.17,29.92,10,10,10,13,7,20,0.00,0,,158
2013-2-4,63,50,35,34,31,29,82,51,31,29.99,29.89,29.82,10,10,10,13,5,18,0.00,0,,24
2013-2-5,68,46,24,35,29,23,96,69,24,30.06,30.01,29.95,10,9,6,8,1,,0.00,0,,330
2013-2-6,66,46,25,50,37,24,100,71,48,30.08,29.98,29.90,10,10,10,17,5,28,0.00,3,,164
2013-2-7,53,44,34,52,48,33,100,93,71,30.19,29.96,29.84,10,6,1,14,7,23,0.20,7,Rain-Thunderstorm,6
2013-2-8,46,38,30,34,32,29,100,86,61,30.38,30.28,30.19,9,6,3,12,6,,0.00,4,,42
2013-2-9,44,36,28,43,36,29,100,90,65,30.19,29.98,29.74,10,6,2,17,7,23,0.05,5,Rain-Thunderstorm,153
2013-2-10,57,46,35,49,37,25,100,73,28,30.07,29.75,29.62,10,8,2,20,9,32,0.11,3,Rain,221
2013-2-11,51,38,25,27,24,21,89,63,31,30.25,30.17,30.08,10,10,10,7,2,,0.00,0,,40
2013-2-12,42,35,28,36,29,25,100,78,55,30.16,30.07,30.01,10,7,2,8,3,,0.22,7,Rain-Snow,1
2013-2-13,55,44,32,35,32,26,100,73,34,30.04,30.00,29.94,10,9,4,13,4,20,0.04,3,,247
2013-2-14,55,44,32,33,30,27,82,56,36,30.24,30.08,29.96,10,10,10,13,7,23,0.00,2,,333
2013-2-15,44,32,21,23,18,11,85,57,27,30.45,30.37,30.26,10,10,9,9,6,24,0.00,1,,344
2013-2-16,42,32,21,24,16,8,81,54,27,30.42,30.27,30.08,10,10,10,14,4,18,0.00,2,,163
2013-2-17,68,44,21,32,26,18,89,53,23,30.08,29.93,29.71,10,10,10,16,5,24,0.00,0,,174
2013-2-18,60,45,26,48,34,21,81,55,39,30.19,29.80,29.60,10,10,10,18,13,30,0.00,2,,264
2013-2-19,48,34,19,25,20,18,92,66,30,30.38,30.28,30.19,10,10,10,8,1,17,0.00,0,,5
2013-2-20,36,32,27,32,26,12,100,84,44,30.33,30.21,30.06,10,5,0,12,6,,0.11,8,Fog-Snow,70
2013-2-21,33,29,23,34,30,19,100,96,80,30.04,29.83,29.71,10,4,1,18,9,26,0.54,8,Rain-Snow-Thunderstorm,54
2013-2-22,33,25,17,24,19,14,89,78,56,30.19,30.12,30.00,10,10,10,7,5,,0.29,0,,274
2013-2-23,44,30,15,28,21,13,96,76,43,30.16,30.06,29.98,10,9,7,7,0,,0.00,0,,180
2013-2-24,57,38,19,37,29,18,96,73,42,29.99,29.90,29.78,10,9,5,18,4,26,0.00,0,,151
2013-2-25,39,36,32,37,34,31,100,96,79,29.85,29.66,29.55,10,4,1,24,10,34,1.10,7,Rain-Snow-Thunderstorm,17
2013-2-26,41,36,32,35,32,28,100,89,73,29.95,29.71,29.56,10,6,2,13,8,26,0.24,8,Snow,338
2013-2-27,43,38,32,32,29,26,89,74,55,30.17,30.06,29.93,10,8,4,10,4,24,0.00,5,,300
2013-2-28,42,35,28,29,27,25,85,74,60,30.26,30.22,30.17,10,10,10,7,4,,0.00,5,,312